Weather Roundup
Issued by NWS

Home | Current Version | Previous Version | Graphics & Text | Print | Product List | Glossary Off
Versions: 1 2 3 4 5 6 7 8 9 10 11 12 13 14 15 16 17 18 19 20 21 22 23 24 25 26 27 28 29 30 31 32 33 34 35 36 37 38 39 40 41 42 43 44 45 46 47 48 49 50

000
NZUS93 KARX 230059
HRRWXR

CURRENT HOURLY OBSERVATIONS ACROSS
MUCH OF THE UPPER MISSISSIPPI VALLEY
NATIONAL WEATHER SERVICE LA CROSSE WI
800 PM CDT MON MAY 22 2017


...SOUTHEAST MINNESOTA...


CITY           SKY/WX    TMP DP  RH WIND       PRES   REMARKS
ROCHESTER      CLOUDY    60  47  61 N7        29.81R
ROCHESTER/MAYO MOCLDY    64  45  50 NW8       29.80S
WINONA         PTCLDY    63  46  55 CALM      29.79F
AUSTIN         CLOUDY    61  48  63 N5        29.80R
ALBERT LEA     HVY RAIN  59  52  77 NW8       29.82R
DODGE CENTER   CLOUDY    61  46  59 NW7       29.81R
PRESTON        MOCLDY    61  48  63 NE3       29.80S
OWATONNA       PTCLDY    61  48  63 NW6       29.82R
FARIBAULT      CLOUDY    61  48  63 NW6       29.82R
$$

...ELSEWHERE IN MINNESOTA...


CITY           SKY/WX    TMP DP  RH WIND       PRES   REMARKS
MINNEAPOLIS    MOCLDY    61  40  45 NW12      29.81S
INTNL FALLS    CLOUDY    49  42  77 NW9       29.82R HAZE
DULUTH         MOCLDY    52  44  74 W5        29.80S
RED WING       MOCLDY    63  41  45 N3        29.79S
REDWOOD FALLS  CLOUDY    56  46  69 NW5       29.84R
MANKATO        RAIN      58  50  75 W5        29.84
WORTHINGTON    MOCLDY    51  46  83 N21       29.86R
FAIRMONT       LGT RAIN  55  52  89 N7        29.84R
$$

...SOUTHWEST WISCONSIN...


CITY           SKY/WX    TMP DP  RH WIND       PRES   REMARKS
LA CROSSE      CLEAR     65  51  60 CALM      29.79S
PRAIRIE DU CHI CLOUDY    63  55  76 S5        29.81R
BOSCOBEL       CLOUDY    64  56  75 CALM      29.82R
LONE ROCK      NOT AVBL
PLATTEVILLE    CLOUDY    63  61  91 S9        29.83S
FORT MC COY    PTCLDY    66  49  54 CALM      29.81R
MAUSTON-NEW LI CLEAR     65  51  60 CALM      29.80S
VIROQUA        FAIR      64  50  59 CALM      29.81S
WIS DELLS      CLOUDY    62  51  66 S5        29.82S
$$

...ELSEWHERE IN WISCONSIN...


CITY           SKY/WX    TMP DP  RH WIND       PRES   REMARKS
MILWAUKEE      MOCLDY    61  52  72 CALM      29.85F
MADISON        CLOUDY    63  54  72 S8        29.83S
GREEN BAY      CLOUDY    64  51  62 SW8G17    29.81R
EAU CLAIRE     NOT AVBL
BLACK RVR FLS  FAIR      65  42  42 CALM      29.80R
MEDFORD        MOCLDY    56  41  57 NW10      29.82S
WAUSAU         MOCLDY    60  42  51 NW6       29.80S
WIS RAPIDS     PTCLDY    63  44  50 NW5       29.82R
MARSHFIELD     PTCLDY    60  44  55 N7        29.81R
RICE LAKE      PTCLDY    57  43  59 N3        29.84S
$$

...NORTHEAST IOWA...


CITY           SKY/WX    TMP DP  RH WIND       PRES   REMARKS
WATERLOO       CLOUDY    66  52  60 SW10      29.78S
DUBUQUE        PTCLDY    60  56  86 S10       29.83R
DECORAH        PTCLDY    59  52  77 S6        29.79F
MASON CITY     CLOUDY    54  51  90 N10       29.83R
CHARLES CITY   MOCLDY    63  57  82 CALM      29.79R
OELWEIN        CLOUDY    59  55  88 E3        29.80F
$$

...ELSEWHERE IN IOWA...


CITY           SKY/WX    TMP DP  RH WIND       PRES   REMARKS
DES MOINES     CLOUDY    66  53  63 SW13      29.85R
IOWA CITY      PTCLDY    64  55  72 S13       29.86S
FORT DODGE     CLOUDY    61  50  67 NW5       29.84S
MARSHALLTOWN   PTCLDY    65  54  67 SW13      29.81R
CEDAR RAPIDS   MOCLDY    62  58  86 S12       29.82S
$$

...NORTHERN ILLINOIS...


CITY           SKY/WX    TMP DP  RH WIND       PRES   REMARKS
CHICAGO-OHARE  CLOUDY    65  53  65 S18G24    29.90S
CHICAGO-MIDWAY CLOUDY    65  55  70 SW14G23   29.92S
MOLINE         CLOUDY    62  54  74 S13       29.87S
ROCKFORD       CLOUDY    64  53  67 SW12      29.89S
PEORIA         CLOUDY    58  58 100 S10       29.94F
$$

NOTE: "FAIR" INDICATES FEW OR NO CLOUDS BELOW 12,000 FEET WITH NO
SIGNIFICANT WEATHER AND/OR OBSTRUCTIONS TO VISIBILITY. WIND
SPEEDS ARE IN MILES-PER-HOUR.




USA.gov is the U.S. government's official web portal to all federal, state and local government web resources and services.